Location: Hohenfelde
(53.8441°N, 9.6220°E)
Time: 12:41:49
(UTC+00:00)

BREEZE-M DEB (TANK) - Pass Details

Date: 14 July 2020
Orbit: 428 x 13237 km, 46.0° (Epoch: 12 August)

Event Time Altitude Azimuth Distance (km) Brightness Sun altitude
Rises 00:07:08 0° 247° (WSW) 6,657 8.0 -14.0°
Reaches altitude 10° 00:13:20 10° 241° (WSW) 4,099 6.9 -13.9°
Maximum altitude 00:20:40 33° 181° (S) 1,325 4.2 -13.7°
Drops below altitude 10° 00:23:59 10° 114° (ESE) 1,807 5.3 -13.5°
Sets 00:25:39 0° 102° (ESE) 2,497 6.2 -13.5°
